Wind_Speed
3 3 3 2 2 1 2 3 1 2 2 1 2 1 4 5 2 4 5 3 1 2 3 1 2 2 3 5 5 5 3 4 6 3 4 4 6 10 24 17 13 22 23 21 23 22 22 23 22 22 22 22 21 21 22 22 24 25 25 24 24 23 23 22 23 23 23 24 24 24 25 25 25 25 26 26 27 27 27 26 26 25 23 22 21 21 21 21 21 21 22 22 22 22 21 20 20
4 4 3 2 3 1 1 3 2 3 3 1 3 4 4 3 1 5 4 1 1 2 2 1 7 6 6 6 5 4 1 2 4 3 2 3 5 14 22 17 14 22 23 21 23 22 22 22 22 22 21 22 21 21 21 22 23 24 24 22 22 22 22 22 22 23 23 23 23 25 26 26 26 25 25 26 27 27 27 26 26 25 22 21 21 21 21 22 22 22 21 21 21 20 19 19 19
4 4 3 2 2 3 1 3 2 1 2 3 4 4 3 1 5 7 3 1 5 4 3 2 5 5 4 5 3 3 0 1 2 3 2 2 4 10 19 16 14 20 21 21 22 22 22 22 22 21 21 22 21 21 21 22 23 23 23 22 22 22 21 21 21 22 22 22 23 24 24 25 25 24 24 26 28 27 26 25 25 24 22 21 20 21 21 21 21 21 20 20 19 18 18 18 17
4 3 2 1 1 3 3 3 2 4 3 4 4 5 3 4 7 4 1 5 8 5 3 3 3 3 2 4 1 2 1 1 1 1 2 3 3 6 17 15 15 20 20 21 21 21 22 21 22 21 21 22 22 21 21 21 22 22 22 21 21 21 21 21 20 21 22 22 22 22 22 23 23 25 25 26 28 27 26 25 24 22 21 21 20 20 20 20 19 19 19 19 18 17 18 17 14
4 3 2 2 2 1 3 2 2 4 3 4 2 5 5 6 6 1 1 7 8 5 3 1 2 2 2 2 0 0 1 1 2 1 2 3 3 6 16 15 18 20 18 20 19 20 21 20 22 22 22 21 21 21 20 21 21 21 21 21 20 20 21 20 21 22 22 22 21 21 21 22 23 24 24 25 27 27 26 25 24 22 22 21 20 20 20 19 19 19 19 19 18 18 16 14 11
4 3 3 4 2 1 3 1 2 2 5 5 2 6 5 5 5 4 2 5 4 1 1 2 2 2 1 1 1 0 1 1 3 3 3 2 1 9 17 17 20 19 18 19 18 20 20 20 22 22 22 21 20 20 20 20 20 20 20 20 20 20 20 20 21 21 22 22 22 21 21 23 22 21 21 23 24 24 24 24 23 22 22 21 20 20 20 19 18 18 19 19 18 16 13 11 10
4 2 3 4 2 1 3 2 3 3 5 6 4 6 6 4 3 5 6 5 5 5 4 2 2 4 0 2 1 1 5 4 3 4 4 1 4 12 18 19 21 19 18 18 18 20 20 20 22 22 21 20 20 20 20 20 20 20 20 20 20 20 20 20 20 20 21 21 21 21 21 22 21 21 20 20 20 21 22 22 22 21 21 20 19 19 19 19 19 19 19 18 16 13 11 10 10
4 1 1 3 1 2 4 1 2 3 4 4 5 7 10 8 3 6 4 1 2 2 2 1 2 4 1 1 1 0 6 6 3 5 2 4 8 16 19 20 21 19 18 17 19 20 19 21 22 21 20 19 19 19 19 20 20 20 19 19 20 19 19 20 20 20 20 20 21 21 21 21 21 21 19 18 18 19 20 20 21 20 20 19 19 18 19 20 19 19 17 16 14 12 11 10 10
4 2 1 3 2 1 2 1 3 3 5 5 6 9 11 9 3 3 3 2 2 4 3 2 1 2 1 1 1 2 5 6 2 2 4 10 13 19 19 20 21 19 19 17 19 20 19 20 21 21 19 18 18 18 19 19 20 20 19 19 20 19 18 19 20 20 19 20 21 20 20 20 20 19 17 17 17 18 18 19 19 19 19 19 19 18 19 19 18 17 15 14 13 11 10 10 10
3 2 2 2 2 0 3 2 3 3 6 5 7 10 10 9 3 3 3 5 2 6 3 1 1 2 4 1 2 1 4 3 4 6 8 13 16 19 18 19 19 19 18 17 19 19 19 19 20 20 18 18 17 18 19 19 19 19 19 19 19 19 18 19 19 20 20 20 20 20 19 18 18 19 18 17 16 15 16 17 18 19 20 20 19 18 18 18 16 15 13 13 13 11 10 10 10
3 3 2 3 3 1 3 3 4 4 6 5 7 11 10 7 3 3 3 2 1 5 3 0 2 3 4 0 2 3 5 5 7 9 10 13 16 17 17 17 17 17 17 17 19 19 18 18 18 18 17 17 17 17 18 18 18 18 18 19 18 18 18 19 19 19 20 20 19 19 19 17 17 19 19 16 14 13 13 16 18 19 20 19 18 17 17 16 15 13 13 13 13 11 10 10 10
2 2 4 4 2 3 3 2 5 5 6 6 6 8 3 2 4 5 5 4 3 4 3 3 3 4 4 1 2 2 6 8 8 10 10 12 14 14 16 16 16 15 15 17 18 19 19 18 17 17 17 17 16 17 17 18 17 17 18 18 18 17 18 18 18 18 19 19 19 19 18 16 17 19 18 16 14 12 11 13 16 17 18 19 17 17 16 15 14 14 14 14 13 11 10 11 11
3 2 5 2 3 3 3 2 4 4 6 4 5 6 2 2 4 6 6 4 3 3 3 4 5 4 3 2 2 1 5 7 8 10 10 11 12 13 14 15 15 14 13 16 18 18 19 17 17 16 16 16 16 16 17 17 16 16 17 17 17 17 18 18 18 18 18 18 18 18 17 16 17 17 18 18 16 13 11 10 12 15 17 18 17 17 16 15 14 14 14 14 13 12 11 11 11
3 3 4 2 1 2 3 1 3 1 4 5 4 6 3 0 2 4 8 6 2 1 2 1 4 3 1 2 3 1 5 8 9 10 11 11 11 11 12 14 14 13 13 15 17 18 18 17 16 16 16 16 15 16 16 16 15 16 17 17 16 17 18 17 17 17 17 17 17 17 17 16 16 16 17 17 16 15 12 8 9 14 16 17 17 17 17 16 16 15 14 13 13 12 12 12 12
3 2 4 2 1 1 2 2 2 2 4 5 3 6 5 2 3 4 5 6 1 2 1 3 2 1 1 2 2 1 9 11 10 11 12 12 11 12 12 13 14 14 13 14 17 18 18 17 16 16 15 16 16 16 16 15 15 16 17 16 16 17 17 17 17 16 15 16 17 17 16 15 14 15 17 16 15 15 13 9 8 12 14 15 16 17 17 17 17 16 14 12 13 14 13 13 13
2 3 4 2 1 2 2 2 2 2 4 5 3 4 5 4 4 3 2 4 4 2 2 2 4 2 3 3 0 7 16 14 13 14 14 15 15 15 14 14 13 14 13 14 16 17 18 17 17 16 15 16 16 17 17 15 15 15 16 15 16 16 17 17 15 14 14 16 17 16 15 14 14 15 16 14 13 13 12 10 9 12 13 13 14 16 17 18 18 16 13 12 13 15 14 14 14
2 4 4 2 2 3 3 3 3 2 5 6 5 7 5 5 3 1 2 4 6 3 4 2 4 3 1 1 6 15 19 16 16 16 16 18 18 18 17 16 15 14 13 13 16 16 17 17 17 16 15 16 17 18 18 16 15 15 16 16 16 16 16 15 14 13 13 15 15 15 15 14 15 16 16 15 13 11 11 11 11 12 12 13 14 14 16 18 19 17 13 11 12 15 16 15 14
2 3 3 2 3 4 5 6 5 2 4 6 8 6 3 2 1 1 3 7 5 4 4 2 3 4 4 5 12 17 18 17 17 17 16 16 17 17 16 17 16 15 14 13 15 16 17 17 16 16 15 15 17 19 18 16 15 15 16 16 16 15 15 13 13 14 14 15 15 16 16 15 16 17 17 16 14 11 11 12 12 13 13 13 14 14 15 17 19 17 13 11 12 14 16 16 15
2 3 3 3 5 5 5 6 4 3 4 7 9 4 1 3 3 1 3 3 3 3 2 3 3 3 4 8 13 15 16 17 16 16 15 13 15 13 14 17 16 16 16 14 16 16 17 18 16 16 16 16 18 19 19 17 16 16 16 16 16 15 14 13 13 15 15 15 16 17 17 16 16 16 16 16 15 13 12 12 12 13 13 13 13 14 15 17 19 18 14 12 12 13 16 17 16
2 3 3 5 6 5 5 5 6 5 5 8 10 3 3 5 4 1 4 2 2 2 3 0 1 4 4 7 10 13 14 15 15 15 15 14 14 11 14 17 14 17 17 15 18 16 17 19 17 17 16 17 18 19 19 18 17 17 17 17 17 16 16 15 14 16 17 16 16 16 16 16 15 14 14 14 14 14 12 12 12 13 14 13 13 14 15 17 19 18 15 13 13 13 15 16 16
2 3 4 5 4 4 6 6 6 6 5 5 7 6 6 5 1 3 7 5 3 4 5 5 6 7 8 8 8 11 12 13 14 14 14 14 13 12 15 17 14 17 16 15 19 18 18 19 19 19 18 18 19 20 20 19 18 18 19 19 19 19 17 16 16 16 17 15 15 16 16 16 15 13 13 14 14 14 13 13 13 14 15 14 13 14 15 17 19 19 16 14 13 13 14 15 15
1 2 5 5 4 4 6 5 6 4 3 4 5 6 5 4 1 4 8 6 3 5 6 8 8 9 10 10 10 10 10 11 12 13 13 13 13 14 17 19 17 18 17 18 21 22 21 19 19 21 20 20 20 20 20 20 19 20 20 20 19 19 17 17 17 17 17 16 16 16 16 15 14 13 13 14 14 14 14 13 13 14 15 15 14 13 14 16 19 19 17 15 14 13 14 14 14
2 3 2 5 5 5 5 3 5 2 2 6 4 4 4 3 3 3 6 6 6 4 5 7 5 7 8 8 10 9 10 11 11 13 14 15 16 18 20 20 19 20 20 19 22 24 22 20 21 21 21 21 20 20 21 20 20 20 20 19 18 17 16 16 16 17 17 16 16 15 15 14 14 14 13 13 14 14 14 13 12 13 14 15 14 14 14 16 18 18 17 16 14 13 13 13 13
3 4 3 4 5 7 7 5 6 5 5 8 3 6 8 5 4 0 3 6 4 2 1 7 7 7 7 7 7 7 9 10 11 13 16 17 19 21 20 20 19 20 21 20 22 23 21 22 22 21 21 21 21 21 21 21 20 20 20 18 17 16 15 15 15 17 17 16 16 15 14 14 15 15 15 14 14 14 14 13 13 12 13 14 14 14 14 15 17 17 17 15 13 12 12 12 12
4 5 4 3 5 7 7 7 8 7 7 6 3 7 11 8 2 0 5 6 1 4 6 8 8 8 8 7 7 7 8 10 11 12 14 15 17 18 18 19 19 20 22 21 22 23 22 23 23 23 22 21 22 22 22 22 21 20 20 18 17 15 14 14 15 16 16 15 15 14 15 15 15 16 16 15 14 14 14 14 13 13 12 13 14 14 14 15 16 16 16 15 14 12 11 10 10
5 7 5 4 6 7 6 6 8 7 4 2 1 8 11 6 2 3 5 2 3 7 7 7 9 10 8 7 7 7 8 9 10 12 13 13 15 16 16 19 20 21 23 21 21 23 22 23 23 22 22 21 21 22 22 22 21 20 19 17 16 14 13 14 15 15 16 15 15 14 15 16 15 16 17 15 15 14 13 14 13 12 12 13 15 14 14 14 15 15 16 15 14 12 10 8 8
5 6 5 6 7 7 4 6 7 3 3 5 5 10 8 4 1 4 6 2 5 8 7 7 8 9 8 7 7 7 7 9 10 11 11 11 14 15 16 20 21 21 22 21 22 22 21 22 22 21 21 21 21 22 22 22 19 18 17 16 16 14 14 15 15 16 16 16 17 17 17 16 15 17 17 15 14 12 13 13 13 13 13 14 15 15 14 13 14 14 15 15 14 12 10 7 6
4 5 2 6 5 6 4 6 7 1 4 7 9 7 4 4 1 5 6 4 5 9 9 8 7 6 8 8 7 6 6 8 10 10 10 10 13 15 17 21 22 21 23 22 21 22 22 22 22 22 22 21 21 22 21 20 19 17 16 16 17 16 16 16 16 17 16 16 19 21 20 17 16 18 18 15 13 12 13 14 14 14 14 14 15 15 13 13 13 13 14 14 13 11 9 8 7
2 4 2 6 6 5 5 6 5 4 3 6 8 2 5 3 3 4 5 5 4 8 9 9 7 5 7 8 6 6 6 8 10 10 10 11 13 15 17 21 23 22 23 23 20 22 25 24 23 23 23 22 21 21 20 19 19 18 18 19 19 18 18 18 17 16 13 15 20 21 20 20 18 19 18 14 12 13 14 15 15 15 14 14 14 13 12 13 14 13 13 12 11 10 9 9 10
2 2 2 3 6 5 6 3 1 5 3 5 8 1 7 7 2 4 5 6 6 7 9 9 7 6 7 8 6 6 6 8 9 9 11 12 12 15 18 20 22 21 21 22 22 23 24 25 25 24 23 22 21 21 20 20 20 19 20 20 19 18 18 17 17 15 13 16 21 21 20 20 20 19 18 14 13 13 15 16 16 15 14 14 14 13 12 12 14 13 12 12 11 9 9 10 12
1 1 1 1 1 4 7 3 3 4 2 5 6 2 7 6 1 7 7 7 9 9 8 9 8 6 7 7 7 6 6 7 8 10 12 13 13 16 18 19 20 20 20 22 23 23 23 24 23 22 22 22 22 21 21 21 20 19 19 18 19 19 18 19 18 16 16 17 21 21 20 20 20 19 17 16 15 14 16 17 17 16 15 14 13 13 12 12 13 14 13 12 11 10 10 12 15
2 1 2 3 2 4 8 3 3 3 1 3 5 2 6 6 4 7 7 8 9 9 8 9 8 7 8 7 7 6 4 5 8 11 13 15 16 17 18 19 20 20 20 21 22 22 23 23 22 22 22 22 23 23 22 22 20 19 17 16 19 19 20 22 20 18 19 19 20 21 21 21 20 19 18 18 17 15 16 18 18 16 15 14 14 13 13 13 15 16 14 12 12 12 12 14 15
3 1 3 1 3 2 4 2 2 2 1 3 2 2 4 3 4 4 4 8 7 8 8 9 8 8 8 6 5 5 3 3 6 10 14 17 18 18 18 18 19 20 21 21 21 22 22 22 22 22 23 23 23 24 23 21 20 19 17 16 18 19 20 22 20 19 21 20 19 19 20 21 20 20 19 19 17 16 17 19 17 16 15 14 13 13 13 14 16 18 16 14 13 13 14 15 15
3 2 2 2 2 1 1 2 4 4 2 2 1 2 5 3 3 3 4 8 6 8 8 8 8 6 6 5 4 4 3 4 6 9 15 18 16 16 17 17 17 18 20 20 20 21 20 20 21 23 23 23 23 23 23 22 22 20 17 17 19 19 19 20 19 20 20 19 17 17 19 21 20 20 20 19 18 17 18 20 18 16 16 14 14 13 13 14 16 18 18 16 15 15 16 15 15
3 1 3 0 1 0 2 2 3 5 4 1 0 2 8 6 4 3 6 7 8 9 7 7 7 6 6 5 4 4 4 6 8 10 15 15 14 14 15 16 17 17 18 18 18 18 18 18 20 21 22 22 22 22 22 22 21 19 18 18 20 19 18 18 19 20 19 17 16 16 17 18 19 19 19 19 18 18 19 20 19 18 17 16 16 15 14 15 16 19 19 17 16 15 15 16 16
7 4 5 4 1 1 4 4 5 2 3 3 1 4 7 4 3 5 4 5 8 6 3 5 6 6 6 5 4 4 6 9 9 11 12 11 12 13 13 15 16 16 15 15 14 14 16 17 19 20 21 21 21 21 21 20 17 16 17 19 20 19 18 17 17 17 16 15 15 15 16 17 18 17 18 20 19 19 20 21 21 20 19 18 17 17 17 17 18 20 19 18 17 14 13 16 18
7 5 5 4 2 2 5 5 7 3 0 4 2 4 7 4 4 4 3 1 5 5 5 7 7 7 6 7 7 7 8 7 5 7 7 8 12 12 12 13 14 15 14 13 13 15 17 18 20 20 20 20 20 21 20 15 12 11 14 18 20 19 17 16 13 13 13 13 14 15 18 19 18 16 18 21 21 20 19 20 22 20 19 18 17 16 17 17 19 21 20 18 18 16 16 17 19
6 5 5 2 2 3 6 4 6 3 0 3 2 3 6 3 4 3 6 3 2 4 5 6 7 7 6 7 8 6 4 2 1 1 2 5 10 11 12 13 14 15 15 15 17 18 19 20 21 21 20 20 20 22 19 12 12 14 16 18 19 18 16 15 14 13 12 12 14 15 17 19 19 18 19 20 19 18 18 21 23 20 19 19 17 16 17 18 19 21 21 19 17 18 19 20 21
5 4 4 2 3 3 5 4 6 4 1 3 4 5 5 3 3 4 7 2 3 4 3 2 3 5 4 4 5 4 3 2 2 3 3 5 8 10 12 12 13 14 14 16 16 16 17 18 19 19 20 20 19 20 17 14 15 18 18 16 15 14 13 13 13 13 12 11 14 15 16 17 18 18 18 17 17 16 18 22 23 20 19 19 18 18 18 18 19 20 21 20 18 19 19 20 21
4 4 5 2 3 0 2 4 6 4 2 2 3 4 4 5 4 4 6 3 2 6 6 6 4 1 2 2 2 3 4 2 4 4 4 5 5 6 8 9 10 11 12 13 13 12 13 16 17 16 16 18 18 17 16 15 15 16 16 16 13 12 11 9 8 10 10 10 14 15 15 16 17 19 18 17 16 17 19 21 22 20 19 19 19 19 19 19 20 20 21 21 21 20 19 20 18
1 3 5 3 3 3 4 3 6 4 4 3 4 4 4 5 6 6 7 5 6 9 9 9 8 5 1 1 2 1 2 2 4 5 5 5 3 2 4 7 9 10 11 11 11 11 11 12 15 15 14 15 16 15 15 15 14 14 13 12 11 10 10 9 9 10 10 12 15 16 17 17 17 18 18 18 18 19 20 21 21 20 19 19 19 19 19 19 19 21 21 20 21 19 19 22 17
3 4 7 7 6 6 4 2 5 4 3 3 5 5 3 4 6 6 6 7 9 9 9 10 10 8 4 2 3 3 4 3 3 4 4 5 4 3 3 6 8 9 8 8 8 10 10 10 12 15 15 14 15 15 16 18 18 17 15 13 13 12 12 13 14 13 13 15 17 17 18 19 18 18 18 19 20 21 22 21 20 19 19 19 19 19 19 19 19 20 20 20 20 19 19 22 19
1 5 8 8 7 6 5 3 3 2 2 2 5 5 3 3 6 6 5 8 9 7 8 10 8 8 7 3 2 3 5 5 5 4 4 5 5 5 3 4 6 7 7 6 7 9 11 11 12 14 15 15 15 16 18 19 20 20 18 17 16 15 15 15 15 16 16 17 17 16 17 17 18 18 18 19 20 21 21 22 21 18 18 19 19 19 19 19 19 17 18 19 19 20 20 22 21
3 5 7 9 7 7 6 5 4 3 3 3 4 5 2 2 2 3 3 6 8 8 8 8 7 8 8 6 4 2 4 6 5 5 5 4 5 6 4 4 4 5 6 6 7 8 10 12 13 14 15 15 15 16 18 20 20 19 19 19 18 18 17 16 16 17 18 19 18 16 16 16 16 17 18 19 19 19 20 21 21 19 18 18 18 19 18 17 17 16 17 19 19 20 20 21 22
5 5 8 8 7 7 5 6 4 1 1 3 6 2 3 3 3 2 2 5 7 8 8 9 8 8 8 7 6 4 3 4 5 6 5 4 6 6 5 5 4 5 4 5 6 7 9 11 12 12 13 16 17 16 17 18 19 19 18 19 19 18 16 16 16 17 18 19 18 17 15 15 15 16 18 20 20 19 18 20 20 20 19 18 18 17 17 16 16 16 17 18 19 20 19 19 21
5 6 8 5 4 4 4 5 4 2 2 3 6 0 2 4 4 3 3 4 4 5 6 7 7 7 7 6 6 4 3 3 4 5 5 5 6 6 5 4 4 4 3 3 4 6 8 10 11 12 12 15 17 18 18 18 18 19 20 20 19 17 16 15 17 18 18 18 17 17 16 15 15 15 17 19 21 19 18 20 20 20 19 18 18 17 16 16 16 16 16 17 18 19 18 18 18
4 7 6 6 5 5 4 2 3 4 1 6 6 2 3 2 4 2 1 2 2 2 3 4 5 6 6 5 5 4 2 1 2 3 4 5 5 5 4 3 1 1 3 3 3 3 5 7 9 11 12 14 16 18 19 19 18 18 21 22 21 19 18 17 18 19 19 19 19 18 17 18 19 18 19 19 19 19 19 20 19 19 18 17 17 17 16 16 16 16 16 16 18 18 17 16 16
6 5 5 5 2 4 4 4 3 3 3 6 3 3 6 2 3 1 2 3 3 3 4 5 5 6 6 6 7 6 5 4 2 2 3 4 5 5 5 4 5 5 6 7 6 6 5 5 8 10 11 12 15 18 20 20 19 19 20 22 23 22 21 20 20 20 21 21 21 19 18 20 22 21 21 20 19 19 19 19 18 18 17 17 17 16 16 15 15 15 16 17 17 17 16 15 15
5 4 5 5 1 1 1 2 0 2 4 3 1 3 4 2 4 2 2 4 5 5 4 5 6 6 7 7 8 8 7 7 7 5 5 5 5 6 7 7 8 8 8 9 8 7 6 5 6 8 10 11 13 17 20 22 22 21 21 22 24 24 23 22 21 21 22 21 21 20 19 22 24 24 23 22 20 19 19 18 18 18 17 17 17 17 16 15 14 15 16 16 16 16 16 15 16
5 5 5 5 3 3 2 2 0 1 3 2 2 0 2 2 3 1 1 2 4 4 5 5 6 7 7 7 8 7 7 7 7 6 6 5 5 7 8 8 8 8 9 9 8 7 6 4 5 7 8 11 14 17 20 23 23 23 24 24 25 26 25 23 22 21 22 22 22 22 22 23 24 25 24 22 20 19 19 18 18 18 17 16 16 16 16 15 14 15 16 16 15 15 15 15 15
5 5 5 5 5 5 3 3 3 3 2 2 3 0 2 1 0 1 2 0 1 2 4 4 5 6 6 7 8 8 8 7 6 6 6 6 7 8 8 9 9 9 9 9 8 7 6 4 5 7 9 12 17 19 21 23 23 24 26 26 26 25 23 21 20 21 20 21 21 23 24 24 24 24 24 22 20 19 19 18 18 18 17 17 17 16 16 15 14 14 15 15 15 15 15 15 15
2 2 5 4 6 5 3 2 4 4 3 2 1 0 1 2 0 2 1 2 2 4 4 4 5 6 6 7 8 8 7 7 7 7 7 8 10 11 11 12 12 12 12 10 6 4 4 4 5 8 11 17 21 21 22 25 26 25 24 23 23 22 19 18 18 20 20 20 21 22 23 24 24 24 23 22 20 19 18 18 18 18 17 18 18 17 16 16 15 15 14 14 15 15 15 15 15
1 3 3 4 4 7 5 1 1 4 4 1 1 1 0 1 1 1 2 3 4 5 4 5 6 7 7 7 7 6 6 6 7 6 6 8 9 11 13 14 14 15 15 12 8 4 4 4 6 9 14 19 21 22 23 22 20 20 21 22 22 21 19 18 18 19 20 21 22 22 23 23 23 23 23 22 20 19 19 18 17 18 18 18 18 16 16 15 14 14 13 13 14 15 15 14 14
4 2 5 3 3 5 5 2 3 4 3 2 2 2 3 2 1 3 4 4 6 6 5 6 6 7 7 6 6 6 6 6 7 7 7 9 11 13 13 14 14 14 13 12 10 6 6 6 6 9 13 19 20 21 23 19 16 16 18 19 21 20 19 20 21 20 20 21 22 22 21 20 19 19 20 20 20 19 19 18 17 17 18 18 16 15 15 14 13 13 12 12 12 13 13 12 12
4 4 5 5 4 2 2 3 2 2 2 1 3 1 2 3 2 4 6 6 6 6 5 6 7 7 6 6 6 6 6 6 6 7 7 8 12 16 17 17 17 16 14 13 12 9 8 9 7 7 11 16 19 20 20 17 17 18 17 15 16 17 19 21 22 22 22 20 19 17 16 17 18 18 19 19 19 19 19 17 17 17 17 17 16 15 15 14 13 13 12 12 12 12 12 12 11
3 3 3 2 3 4 3 2 3 4 3 2 1 1 2 4 3 5 7 6 6 6 5 6 7 7 6 5 6 6 7 6 6 7 7 8 12 17 18 18 18 18 17 16 15 14 13 12 9 7 8 10 13 14 14 14 15 15 15 15 12 13 17 19 21 22 18 13 13 14 16 19 19 18 19 18 18 18 18 17 16 16 16 16 16 15 15 14 13 13 13 12 12 12 12 12 11
3 3 2 0 2 3 2 2 2 4 4 3 3 1 4 4 3 5 8 6 5 6 6 6 6 6 6 6 6 6 6 7 7 7 7 9 12 16 17 19 19 20 21 19 18 17 16 15 13 10 9 7 6 8 10 11 9 9 12 13 10 12 14 17 19 16 8 9 14 17 17 18 17 17 18 18 18 18 17 16 16 16 15 15 16 16 15 15 14 13 13 12 12 12 12 12 11
4 4 4 3 3 4 4 1 0 2 3 4 5 3 5 4 1 3 6 5 5 7 8 6 5 6 7 6 7 7 7 7 8 8 8 9 12 14 16 18 19 20 21 21 20 18 16 16 16 14 12 10 8 7 7 8 8 8 11 12 13 14 13 12 13 8 4 11 19 18 16 18 17 17 18 17 18 17 16 16 16 15 15 16 17 17 16 15 14 14 13 13 12 13 13 12 12
Wind_Direction
93 88 75 92 30 330 336 56 90 328 90 72 286 225 254 230 235 281 284 329 3 307 278 237 98 87 102 128 159 168 162 155 167 138 193 290 358 165 165 157 153 162 159 160 163 160 163 160 159 158 153 150 147 147 146 144 141 140 138 135 131 128 126 125 127 126 128 128 127 126 123 120 119 120 121 122 121 120 119 118 118 117 115 113 112 110 108 108 109 106 105 106 105 104 102 101 101
111 106 76 91 33 62 245 72 103 332 61 314 278 186 252 271 233 243 243 10 309 261 265 112 93 69 63 91 116 114 40 152 188 205 234 355 72 145 160 159 156 161 158 159 162 160 162 160 160 158 155 151 149 149 147 145 142 140 139 133 128 126 125 126 126 127 127 126 125 124 122 120 121 122 123 123 121 121 121 120 120 119 115 114 112 110 110 110 111 109 107 107 107 105 104 105 104
113 106 68 117 36 46 78 45 101 69 105 238 270 230 253 259 225 232 217 234 255 254 290 337 78 53 49 62 55 94 74 205 183 248 311 26 87 137 159 164 161 160 156 158 162 162 161 160 160 159 156 153 151 151 148 144 142 142 139 132 129 127 126 126 125 126 125 125 125 122 120 120 121 123 124 124 122 122 123 123 122 121 118 116 114 111 111 111 111 109 107 107 107 106 106 107 105
111 102 42 151 57 29 64 45 135 123 138 212 262 257 233 216 235 234 180 238 245 236 279 333 40 357 63 87 357 91 174 277 95 215 330 28 27 148 163 165 168 161 156 159 162 162 161 160 161 161 158 154 152 151 148 145 145 144 139 134 131 130 127 126 126 126 125 125 123 120 120 119 122 125 126 126 125 126 126 125 123 125 125 120 118 116 114 113 113 110 108 106 105 104 105 104 100
110 113 38 69 96 33 96 76 110 121 189 191 233 262 232 223 250 300 164 250 255 218 208 69 34 322 57 89 259 50 229 284 26 0 342 13 11 157 162 164 168 161 156 160 161 161 160 161 162 163 159 153 151 149 148 147 146 143 140 137 134 132 129 128 128 127 127 126 123 122 123 121 121 123 127 129 130 130 129 129 129 132 133 126 124 122 119 117 116 112 109 107 107 107 102 97 93
116 114 47 51 95 172 116 116 150 191 228 178 205 260 240 221 253 300 325 290 308 122 157 84 144 145 45 338 149 338 11 350 332 335 357 14 38 159 160 163 163 157 157 160 161 161 159 162 162 162 158 153 150 148 149 149 147 143 141 139 135 133 131 130 130 131 131 128 125 125 125 124 122 122 125 128 130 131 132 135 135 135 134 130 128 126 122 120 118 114 111 110 109 105 97 90 86
132 122 33 58 50 21 108 155 185 232 243 179 203 269 277 254 249 321 357 342 358 40 36 46 133 110 67 293 104 24 45 27 322 330 332 234 166 160 162 163 158 155 159 161 163 161 160 163 162 161 157 153 151 149 152 152 151 146 143 141 137 135 134 134 134 133 132 129 127 128 128 126 124 125 127 127 129 130 130 133 134 132 132 132 131 128 124 123 121 118 115 113 108 100 92 84 80
121 132 26 94 50 10 101 151 214 218 245 210 235 271 280 284 305 326 348 0 330 17 63 8 44 85 261 331 74 310 49 26 336 339 301 178 162 159 163 162 155 155 160 162 163 160 161 163 161 159 154 152 151 150 154 154 154 150 145 144 140 138 139 139 136 133 131 131 130 130 130 127 128 129 129 131 132 132 130 130 132 133 135 136 135 131 128 127 126 123 118 112 105 99 92 82 80
77 48 79 95 116 23 56 314 268 237 258 264 268 266 270 283 292 282 277 279 238 163 174 234 0 99 182 25 286 246 43 25 17 42 143 155 157 158 162 162 155 154 159 162 161 159 162 164 160 156 153 153 152 151 155 156 156 154 150 149 144 142 144 143 138 135 134 135 133 133 134 131 132 131 131 133 132 133 132 132 133 136 140 141 140 137 134 133 131 126 118 111 107 102 94 83 84
43 25 127 79 112 346 333 295 268 256 261 263 267 266 268 274 247 211 265 290 213 151 197 236 60 123 142 167 262 48 57 51 106 111 130 146 154 156 157 159 156 154 159 162 160 160 161 162 159 156 154 152 152 153 156 158 158 158 156 153 148 145 146 143 139 138 137 137 135 136 138 135 135 133 130 129 129 131 134 135 136 139 143 144 144 143 140 137 133 127 119 116 113 104 94 86 89
40 356 104 77 74 160 260 255 272 266 273 291 283 270 262 259 209 201 223 245 121 130 199 125 91 144 115 261 252 92 95 103 120 120 126 143 150 152 152 156 156 154 159 159 158 160 157 159 159 155 153 152 153 154 156 158 160 160 158 154 150 147 146 142 139 138 139 138 136 139 139 137 138 133 127 125 127 128 132 138 139 141 144 146 147 147 145 141 136 128 124 122 115 105 96 89 93
93 339 69 90 134 188 210 225 270 279 295 304 284 280 278 186 159 189 177 155 132 126 205 205 159 147 95 329 235 136 97 98 122 131 131 138 144 148 150 154 155 155 156 155 156 159 156 156 158 155 153 154 156 156 156 157 160 160 157 154 150 147 146 142 139 138 139 138 137 140 140 139 139 133 129 130 129 123 126 135 139 143 145 148 149 150 149 145 139 130 130 125 115 106 98 90 96
121 148 89 122 190 169 179 211 271 305 312 280 253 285 9 118 189 181 140 108 102 120 254 214 147 104 106 258 266 109 94 104 129 140 137 132 138 146 148 152 155 156 154 154 155 157 156 155 156 156 155 156 158 157 156 157 159 159 155 153 150 148 147 143 141 140 142 143 142 143 143 143 141 138 136 135 133 130 133 133 137 144 145 147 151 152 151 146 140 135 134 126 117 109 99 94 101
141 152 114 162 200 135 172 231 285 305 284 261 260 299 333 332 221 149 120 85 42 167 254 164 125 91 80 278 308 15 107 124 137 143 135 126 133 140 146 151 156 153 151 157 156 156 155 154 157 157 158 158 159 157 157 160 160 157 156 155 153 150 149 147 146 145 146 147 146 145 145 145 144 144 142 139 138 139 142 139 136 142 143 146 151 152 152 148 142 140 136 128 120 111 102 101 108
161 131 95 118 39 321 209 217 220 164 258 263 282 317 337 7 77 94 118 120 120 252 161 60 50 68 147 178 273 173 130 134 141 141 130 123 125 131 143 150 155 153 152 159 155 156 155 154 159 158 159 160 160 159 158 162 161 158 160 160 158 155 154 153 151 150 150 149 147 146 146 147 147 146 144 142 143 143 143 144 140 141 141 144 149 152 152 148 145 143 139 132 120 111 107 107 112
141 101 74 87 170 254 220 207 186 180 259 256 278 357 6 342 59 91 258 154 136 0 33 33 2 45 179 199 177 128 134 136 140 139 128 123 123 125 134 140 148 151 152 157 154 156 156 157 161 158 161 163 164 162 161 163 162 163 166 166 164 161 160 157 153 151 151 150 148 146 148 149 146 143 143 143 146 147 144 145 144 142 142 143 146 149 150 149 145 143 143 135 119 113 113 114 116
80 83 78 82 181 214 202 205 178 194 269 275 318 23 35 318 3 135 309 58 105 58 38 43 358 21 266 335 106 127 133 134 138 135 124 122 122 121 125 131 136 145 150 152 155 158 156 159 161 161 163 166 168 166 167 168 166 169 172 171 169 167 164 158 152 151 152 151 149 148 152 152 147 146 149 148 149 155 151 145 146 146 145 144 144 145 148 148 145 144 146 137 120 118 120 122 124
78 96 118 154 193 206 185 196 194 204 286 296 323 5 40 299 292 183 36 32 46 52 34 39 13 25 32 76 113 126 131 133 139 135 123 120 122 121 122 129 131 142 152 149 156 158 155 161 163 164 167 169 172 170 171 171 172 176 176 174 170 169 165 158 155 156 158 157 157 159 160 158 154 155 157 154 153 164 162 149 148 149 151 149 144 143 147 147 144 144 146 138 125 124 126 127 129
136 115 129 197 208 218 195 199 216 232 282 301 311 333 37 256 205 136 84 11 10 75 5 358 0 9 70 100 118 127 130 132 142 139 130 125 128 128 123 129 131 140 153 150 156 162 158 164 168 169 171 172 175 174 174 172 176 179 177 176 171 169 166 163 163 163 165 165 167 169 167 164 161 162 163 160 159 169 171 157 153 153 157 155 147 144 146 147 145 144 145 139 131 130 130 130 131
184 122 141 231 220 238 230 213 230 241 270 300 299 317 4 269 228 93 125 115 26 154 221 50 282 253 139 126 130 132 131 132 144 144 143 143 137 134 126 132 134 138 151 148 154 167 165 168 173 173 176 177 178 176 177 177 179 182 180 178 173 170 170 170 170 168 170 174 176 175 172 169 168 167 166 167 166 173 177 164 160 160 163 162 153 148 147 150 147 142 142 141 136 134 134 133 135
194 143 178 232 206 240 246 220 239 255 250 266 292 334 339 278 217 103 129 101 339 249 224 190 195 207 168 158 149 139 137 137 147 149 151 152 140 132 131 143 147 143 153 148 153 171 174 175 177 177 181 181 181 179 181 183 183 185 183 180 176 174 174 173 174 174 176 180 181 178 175 174 173 172 171 172 173 179 182 171 167 167 168 167 160 154 149 151 149 142 140 140 137 134 135 137 139
173 200 193 209 177 236 256 221 228 239 230 262 306 335 328 303 38 137 137 125 232 234 215 205 196 185 170 165 159 148 144 144 152 154 154 152 142 135 138 151 155 151 160 153 155 172 179 184 183 181 185 184 185 185 185 186 187 189 185 181 179 177 176 172 175 178 180 183 181 177 177 177 177 180 181 178 178 184 187 179 172 171 172 172 166 159 153 151 152 146 141 139 135 132 135 140 143
204 270 233 224 211 240 269 248 242 263 313 281 281 317 326 325 312 173 154 179 216 247 220 190 178 165 156 158 160 152 149 153 159 163 163 158 153 151 151 157 158 156 165 162 160 169 177 187 190 187 189 187 189 191 190 189 190 190 184 180 179 180 177 171 176 180 182 185 183 179 177 180 184 187 189 186 185 190 195 187 177 173 174 178 173 164 159 155 155 152 146 143 136 132 135 142 147
191 250 277 252 229 235 261 275 281 292 276 266 282 330 306 276 288 300 204 242 247 317 157 139 134 139 141 151 153 145 150 160 168 172 173 168 163 162 160 162 162 161 171 173 170 173 179 185 190 193 193 191 190 193 194 191 192 191 184 179 177 182 181 174 180 186 188 190 189 183 179 183 188 191 194 192 191 196 201 195 184 178 177 183 182 172 165 161 160 157 152 149 145 138 136 142 151
194 220 252 254 236 241 263 278 282 280 260 265 325 310 279 253 236 251 242 268 3 92 108 117 126 140 151 154 148 145 153 165 173 176 178 173 165 161 160 165 169 172 178 180 177 178 182 184 189 195 197 194 191 193 196 194 194 195 186 179 180 184 181 179 189 194 193 196 193 187 186 187 190 198 200 196 197 200 203 203 195 188 186 188 188 182 174 167 164 162 157 153 151 145 138 142 152
211 204 225 243 260 266 275 278 268 270 255 222 321 277 272 264 208 271 272 246 104 103 111 122 138 155 160 156 161 163 162 171 177 177 178 171 159 157 162 170 177 183 185 185 184 184 187 190 194 198 199 197 194 194 197 196 196 198 187 177 183 183 177 185 198 199 197 202 199 195 197 192 195 206 205 200 202 203 204 207 200 194 195 193 192 189 183 176 170 167 163 157 155 153 149 152 158
199 186 217 232 260 282 274 276 272 277 250 183 191 253 279 331 203 254 282 227 126 110 119 142 156 165 157 156 173 175 175 182 181 174 172 165 161 164 167 175 184 189 189 189 191 193 197 200 198 199 201 201 198 197 198 197 195 197 189 182 186 179 178 191 202 204 202 208 207 201 202 196 199 211 212 205 200 202 204 206 203 196 197 194 192 191 189 185 175 172 171 166 165 165 162 173 182
186 166 230 257 282 299 259 267 271 242 246 196 182 240 306 11 221 230 238 205 143 130 141 166 174 164 153 163 179 184 191 188 183 176 174 174 176 176 175 182 189 192 193 192 192 194 198 200 199 199 202 203 201 201 202 198 192 191 189 190 188 178 181 190 201 208 208 215 210 200 200 198 202 214 218 212 201 200 199 202 203 196 196 193 191 191 191 190 182 178 178 177 177 176 175 186 194
205 152 228 288 347 326 256 256 249 176 222 190 160 266 316 267 235 263 221 164 136 138 150 176 181 160 159 174 185 194 198 188 187 182 181 184 186 185 185 191 194 194 196 195 194 197 198 198 200 201 202 202 203 205 204 199 197 198 196 193 187 180 185 189 196 206 206 210 205 197 200 200 203 212 218 217 208 203 199 200 200 195 194 190 186 187 184 186 188 185 182 182 183 184 187 189 189
276 125 161 298 7 330 271 274 199 169 195 163 149 232 279 253 222 263 224 149 137 143 163 185 183 169 171 183 191 195 194 192 191 182 184 186 188 192 194 199 198 197 198 196 198 202 203 202 202 203 203 204 206 207 206 202 203 208 204 196 189 183 190 195 194 198 200 203 201 198 203 203 205 211 214 215 213 211 206 202 199 193 191 187 184 183 179 180 185 185 182 181 183 187 192 189 185
270 106 83 0 76 277 291 296 151 158 166 134 138 205 260 271 230 211 205 163 159 161 182 191 182 180 181 191 195 196 194 193 190 181 187 191 192 198 200 202 201 200 200 200 202 204 205 205 203 203 204 206 208 210 212 211 208 210 208 200 195 190 195 203 198 197 202 203 202 202 206 208 211 214 213 213 211 213 213 210 202 193 192 192 191 190 187 182 180 179 178 178 180 187 187 181 180
41 128 301 352 162 256 306 309 155 179 257 95 125 208 268 291 281 226 197 174 172 170 189 192 190 188 184 194 193 194 190 176 183 183 190 196 199 202 204 204 203 204 205 204 205 205 205 206 204 203 204 207 210 213 216 216 210 211 212 207 207 202 199 203 201 202 208 208 208 209 211 213 216 217 217 217 213 209 213 217 210 198 197 198 196 196 191 184 177 173 174 179 182 182 177 171 173
359 128 209 265 168 247 312 318 315 220 232 22 100 211 273 310 328 302 198 189 180 176 194 194 196 192 187 195 186 190 174 155 187 188 193 199 200 202 205 207 206 208 211 209 207 205 204 204 205 206 207 210 214 216 217 216 211 212 215 213 219 218 207 204 203 208 212 213 216 218 219 218 219 220 217 218 217 210 210 216 215 205 200 196 193 191 184 179 175 173 176 183 188 184 172 162 160
319 22 148 212 185 177 265 281 332 26 78 335 348 238 251 244 332 343 197 198 188 193 203 197 199 195 192 191 180 188 167 186 211 199 199 199 196 198 205 210 211 212 213 213 212 208 204 204 206 209 212 214 218 221 219 216 214 214 218 220 227 227 219 214 213 215 215 216 222 227 229 225 222 221 218 218 217 214 210 209 215 211 198 191 187 183 177 175 174 177 179 182 188 186 172 157 151
195 177 130 127 356 53 270 259 299 11 27 267 102 284 266 263 268 244 211 200 197 211 204 191 200 191 193 196 187 185 175 211 221 210 206 197 188 195 205 211 213 215 215 216 216 210 206 205 209 214 218 218 220 225 223 217 214 216 223 227 229 228 227 226 220 219 218 220 225 234 237 233 229 225 220 220 217 218 214 207 215 212 197 192 188 182 181 179 177 180 183 181 178 177 173 161 150
167 169 133 134 116 260 264 262 262 315 5 287 199 239 270 298 231 219 243 218 202 220 191 179 200 184 188 194 185 185 196 219 224 215 210 190 187 197 205 210 213 217 219 219 216 211 210 210 213 217 220 223 224 225 224 217 211 216 224 228 231 231 231 231 225 222 222 223 229 238 243 240 236 227 218 217 216 218 215 210 215 208 197 195 191 187 186 186 184 184 187 184 173 161 158 158 152
134 124 109 133 151 269 265 266 277 278 316 279 223 228 275 307 246 235 336 257 199 221 195 185 199 190 191 191 193 199 204 228 235 215 207 184 190 198 203 209 213 217 219 216 212 209 212 215 217 216 218 224 225 227 227 217 205 215 228 233 237 238 234 228 223 221 223 230 237 245 248 242 235 225 214 210 210 212 213 214 215 205 197 199 197 194 191 189 189 189 188 183 177 162 148 152 153
107 126 120 127 178 253 258 256 295 319 166 273 17 338 296 291 269 318 31 37 240 250 218 200 205 200 199 194 198 202 205 256 338 138 152 171 191 198 203 209 212 215 214 212 210 210 212 215 217 216 217 220 221 224 225 214 206 218 231 237 239 242 240 232 225 217 215 234 250 254 252 241 230 224 217 211 207 206 208 213 213 204 201 203 201 197 195 192 189 190 186 175 172 164 154 156 158
95 121 131 160 214 263 282 286 310 340 11 285 4 359 306 307 312 16 45 28 291 312 312 292 240 214 218 208 199 202 209 210 129 90 101 167 196 200 203 210 215 219 219 216 214 213 214 217 218 217 217 218 217 220 220 219 219 220 227 235 238 243 244 240 235 218 207 233 252 248 243 235 230 229 224 216 210 207 209 212 209 205 206 207 202 196 193 192 187 188 186 175 163 157 157 163 164
97 124 136 196 238 233 282 291 308 332 25 299 16 10 318 343 357 25 31 24 8 357 353 355 349 274 242 230 188 204 214 184 140 135 143 167 192 200 205 213 219 223 223 222 217 215 219 223 223 221 219 219 217 216 216 219 221 221 227 234 239 244 242 239 227 203 199 225 239 236 231 228 229 234 231 219 210 211 217 217 211 205 206 207 203 197 192 191 188 186 186 181 170 157 155 166 170
250 167 150 173 198 182 208 278 318 343 21 23 47 30 350 15 28 6 354 12 32 16 9 7 357 344 308 131 90 115 158 146 153 160 153 148 154 184 216 224 227 226 225 226 222 218 223 229 230 230 229 226 222 218 214 212 209 208 214 220 219 219 217 211 197 190 200 217 222 222 221 219 218 222 224 218 211 213 221 224 218 208 204 206 204 201 196 193 192 189 188 187 183 175 167 171 176
277 231 185 175 172 178 201 340 14 29 7 351 56 59 323 353 38 9 347 14 20 14 18 12 358 347 342 93 98 90 99 113 138 145 140 132 126 136 217 237 240 236 232 233 232 229 232 239 238 235 235 232 228 225 221 217 213 208 204 200 196 188 184 192 197 201 213 222 218 215 215 214 212 207 206 211 215 216 220 224 221 212 207 208 206 204 200 197 196 195 195 195 194 195 184 176 176
255 239 190 168 156 158 170 140 81 91 226 309 72 109 256 334 38 4 350 31 19 4 17 15 11 3 352 10 80 112 116 118 120 128 142 137 128 133 175 234 243 243 242 240 237 237 238 242 243 238 238 237 233 230 228 226 223 220 217 213 210 202 194 197 204 206 214 225 222 217 217 216 213 206 200 208 217 218 219 220 218 215 213 213 211 209 207 205 205 203 202 202 200 201 194 183 178
224 230 159 148 152 164 174 152 143 200 229 334 23 104 137 336 46 335 340 46 23 6 11 10 21 21 9 9 10 61 123 129 126 132 141 131 127 137 164 208 232 242 249 249 245 244 243 244 244 239 238 240 239 236 235 233 230 228 227 225 222 217 211 206 204 203 210 221 222 220 223 220 213 206 201 207 215 217 220 218 215 217 217 216 215 214 215 214 214 211 208 207 205 205 203 196 188
236 200 138 144 158 163 162 139 144 214 103 319 319 63 104 274 269 315 25 62 27 8 8 6 18 22 18 19 14 31 98 118 124 135 135 123 127 142 169 197 226 246 261 273 266 258 253 248 245 242 241 243 244 242 241 241 239 236 233 230 225 221 218 210 201 198 205 216 220 219 222 221 211 203 201 207 211 213 216 213 213 215 216 217 219 218 218 217 217 217 214 212 210 206 205 205 199
227 157 116 99 100 97 106 122 127 70 81 230 264 304 128 269 301 346 42 54 11 358 9 6 13 21 23 25 21 32 74 119 138 142 133 126 136 148 171 195 222 250 279 296 280 263 253 248 246 243 242 245 246 246 246 245 243 240 236 233 228 221 214 205 196 195 202 211 217 219 218 214 207 203 203 208 210 209 207 205 207 211 214 218 220 220 220 219 219 219 220 217 213 206 202 204 206
138 124 100 69 55 45 53 70 95 94 246 247 245 163 134 249 296 320 352 340 307 329 20 10 14 31 36 31 25 27 38 102 150 149 117 99 108 124 140 153 180 314 342 356 347 303 267 253 248 242 239 241 244 249 251 249 243 238 236 233 230 225 216 205 196 195 200 206 211 217 214 204 201 204 205 207 209 207 202 199 202 210 215 217 218 220 222 223 222 219 221 219 214 210 207 207 209
98 100 107 93 36 23 31 0 47 116 245 263 251 126 116 174 247 237 315 344 5 16 20 9 13 27 33 33 31 25 20 24 40 82 83 71 68 74 75 57 36 23 10 6 0 346 319 281 257 248 246 245 248 254 258 254 243 234 233 231 229 229 224 216 208 201 203 205 207 210 206 199 200 203 205 205 205 202 198 196 203 212 216 216 217 220 221 223 223 220 219 217 213 212 213 214 213
101 90 103 109 97 49 36 300 95 183 240 255 229 117 109 221 241 236 321 7 14 13 24 18 16 23 31 38 38 33 28 25 27 34 41 46 49 49 43 32 29 25 15 7 356 345 329 297 263 253 253 252 256 262 261 255 244 235 233 229 228 229 228 225 220 211 206 205 204 204 203 201 202 202 202 201 198 197 195 196 205 211 213 214 216 218 219 219 220 220 218 216 214 213 214 216 218
143 139 135 133 133 127 185 255 95 222 246 289 322 119 118 273 256 219 60 21 355 6 34 33 31 29 30 40 43 41 36 30 30 33 36 39 40 45 42 30 23 16 7 2 355 349 335 297 260 253 250 247 254 260 257 250 242 239 238 234 232 232 229 226 225 220 215 209 204 203 204 204 205 204 203 199 194 194 195 197 204 209 210 213 216 216 216 215 215 217 218 218 218 218 217 218 221
166 161 142 148 159 148 177 201 166 189 206 335 323 259 153 213 249 86 97 45 315 51 54 48 53 44 38 42 40 38 33 28 27 28 34 32 25 30 34 27 19 10 2 356 351 349 341 310 263 253 246 241 247 252 251 246 241 242 243 242 241 238 232 230 228 226 223 216 208 206 207 207 208 208 206 201 195 194 196 197 203 208 210 213 216 214 212 211 212 213 215 218 219 219 220 222 225
199 139 107 155 181 144 116 168 165 162 137 67 337 261 254 238 193 57 119 207 175 109 97 87 73 59 53 47 40 35 27 22 19 17 24 21 17 20 23 21 16 10 8 3 357 348 328 301 264 252 244 240 241 242 244 246 244 243 244 247 251 249 243 242 237 230 227 222 215 211 210 210 211 210 209 203 196 195 197 198 203 207 210 213 215 214 211 210 209 210 212 215 214 213 216 220 222
144 121 154 207 176 121 110 171 53 86 118 134 281 145 20 256 184 173 197 188 147 127 125 109 84 69 62 52 47 40 29 25 15 10 16 15 21 27 23 18 12 7 5 0 357 351 326 296 267 258 253 249 244 240 246 257 259 251 245 246 253 258 255 252 247 239 233 225 218 216 214 213 212 213 211 204 196 196 198 200 204 206 207 211 214 212 211 210 209 207 209 210 208 208 212 214 213
116 168 193 175 96 93 109 137 20 50 132 237 316 134 153 167 180 185 194 181 148 141 133 103 76 69 66 55 52 42 31 27 11 10 17 18 31 38 34 26 17 10 5 359 355 344 339 330 287 262 260 260 257 251 253 272 296 286 267 256 255 256 255 253 249 245 239 226 218 216 212 210 212 216 215 205 198 199 201 203 208 208 207 209 212 211 209 208 208 207 207 208 206 209 213 211 207
123 175 170 121 120 143 102 124 127 113 154 244 348 357 193 202 211 188 189 181 150 139 119 87 68 63 60 49 47 38 30 25 12 16 18 16 29 33 33 29 21 18 17 16 15 2 350 349 324 283 271 269 268 266 264 275 293 295 294 286 272 262 257 255 251 247 240 225 213 210 208 211 217 221 220 211 204 204 206 209 212 211 209 208 209 210 209 208 209 209 207 206 206 209 211 207 200
41 105 129 84 128 156 154 139 146 153 164 159 69 335 244 225 222 181 178 179 153 137 105 76 64 58 51 41 41 34 29 25 15 16 14 14 24 26 26 25 19 20 23 26 28 21 13 9 356 332 314 293 278 274 280 288 290 296 312 315 298 275 264 259 257 251 239 220 217 222 222 220 219 219 221 217 213 212 212 214 215 212 209 207 206 207 208 208 210 210 208 206 206 206 207 206 200
61 96 154 63 75 114 138 107 98 132 152 156 147 225 257 246 232 167 165 170 149 125 98 76 67 59 49 41 39 32 26 22 14 13 11 9 16 19 21 23 22 22 23 24 26 23 20 17 10 2 359 346 310 284 293 309 304 298 312 314 300 280 269 263 260 256 237 227 241 239 228 221 217 217 219 218 218 219 218 218 215 210 206 202 200 201 204 205 205 205 205 207 209 206 205 205 202
151 152 183 167 127 116 119 127 294 105 122 159 158 191 263 267 264 150 152 147 122 109 99 88 74 64 54 40 37 35 26 20 13 13 13 7 9 12 16 19 21 21 19 18 20 18 16 13 9 7 7 6 360 340 325 331 324 294 287 287 278 272 270 266 260 261 264 248 244 237 227 222 216 214 215 218 221 222 219 215 209 203 199 197 196 197 198 197 196 198 200 204 206 205 205 204 202
Height
772 772 773 773 773 773 774 775 785 793 796 805 807 801 788 780 780 775 772 768 769 767 763 761 759 757 759 763 765 766 767 770 774 783 782 765 757 759 760 762 765 767 769 773 775 777 779 781 783 784 786 787 789 790 792 793 794 794 795 796 797 797 798 800 801 803 804 805 804 805 805 806 807 808 808 808 809 811 812 812 813 814 815 816 817 817 818 820 820 821 821 822 823 824 824 825 826
772 773 772 773 773 773 779 779 792 804 801 806 804 798 785 780 782 774 771 772 771 766 763 761 758 759 759 760 762 766 767 765 766 767 765 761 760 761 762 764 766 768 770 773 776 778 780 781 783 785 787 788 790 791 792 793 794 795 796 797 798 799 801 802 803 805 806 806 806 806 806 807 808 809 809 810 810 812 813 814 814 815 816 817 818 818 819 821 821 822 822 823 824 825 826 826 827
772 773 772 773 773 774 780 781 796 809 806 805 797 789 783 779 776 770 772 772 769 766 764 761 758 761 762 764 764 767 767 764 763 763 762 762 762 763 765 766 768 770 771 774 777 778 780 782 784 786 788 789 790 791 793 794 795 796 797 798 799 801 802 804 805 806 807 808 808 808 808 808 809 810 811 811 812 813 814 815 815 816 817 818 819 820 821 822 823 823 823 824 825 826 827 827 828
772 772 773 772 775 777 783 789 799 805 805 809 794 779 779 774 768 769 773 769 765 764 764 763 763 763 763 767 766 766 767 763 762 762 764 763 764 765 766 768 770 772 773 775 777 779 781 782 784 786 789 790 791 792 793 794 795 796 798 799 801 802 803 805 806 807 808 808 809 809 810 810 810 812 813 813 813 813 814 816 817 818 818 820 820 821 822 823 824 824 824 825 826 827 828 828 829
772 772 773 771 778 781 786 797 805 804 798 802 788 773 773 769 766 770 774 768 762 763 764 765 767 765 762 766 767 767 766 764 762 762 764 764 765 766 767 769 771 773 775 776 778 780 782 783 785 787 789 790 792 793 794 795 796 797 799 800 802 803 804 806 807 808 808 809 810 811 811 812 812 813 814 815 814 814 815 816 817 818 819 820 821 822 823 824 825 825 825 826 827 828 829 829 830
772 773 773 771 778 780 789 800 806 804 791 792 786 770 770 770 769 770 772 766 760 762 762 763 766 766 766 767 766 766 765 764 764 763 764 765 766 767 768 770 772 774 776 777 779 781 783 785 786 788 789 790 792 794 795 796 797 798 800 801 803 804 805 806 807 808 808 809 810 812 813 813 814 815 816 817 816 816 816 817 818 819 820 822 822 823 823 825 826 826 826 827 828 829 830 830 831
772 773 775 776 781 783 794 802 802 803 788 787 784 770 769 770 770 769 770 768 762 761 762 764 763 765 770 768 766 766 764 764 764 764 765 766 767 768 769 771 773 775 777 778 780 782 784 785 787 788 790 791 793 794 795 796 798 799 800 802 803 805 806 807 807 808 808 809 811 812 814 815 815 816 818 818 818 818 817 818 819 821 822 823 824 824 824 825 826 827 827 828 829 830 831 832 832
772 775 779 781 789 791 800 804 801 800 787 782 780 772 769 767 769 770 771 770 766 765 765 765 763 767 771 768 770 768 764 765 764 765 766 766 768 769 771 772 774 776 778 779 781 784 785 787 788 789 790 791 793 795 796 797 798 799 801 803 804 805 806 807 808 809 809 810 811 813 815 816 817 818 819 820 820 820 819 820 821 822 823 824 825 825 825 826 827 828 828 829 829 830 832 833 834
772 776 781 784 793 798 802 804 799 795 787 781 777 771 767 765 768 769 769 769 767 767 767 766 764 769 771 771 772 767 765 767 766 766 767 768 769 770 772 773 775 777 779 781 783 785 786 788 789 790 791 792 794 795 797 798 799 800 802 803 805 806 807 808 809 809 810 811 812 814 816 817 818 819 820 821 822 821 821 822 822 824 824 825 826 827 827 827 828 829 829 829 830 831 832 834 835
774 777 782 788 795 800 803 803 798 791 784 779 774 769 766 765 766 767 767 766 765 767 767 765 766 769 771 772 772 768 767 767 767 768 769 770 770 772 774 775 776 778 780 782 784 786 787 789 790 791 792 794 795 796 798 799 800 801 802 804 805 807 808 809 810 810 811 812 813 815 817 818 819 820 821 822 823 824 823 824 824 825 826 826 827 828 828 828 829 830 831 830 831 832 833 834 835
779 780 782 792 800 802 803 801 796 789 782 779 773 765 762 762 765 766 765 765 766 767 767 766 768 770 771 773 771 768 767 768 768 769 770 771 771 773 774 776 778 779 781 783 785 787 788 790 791 792 793 795 796 797 799 800 801 802 804 805 806 808 809 810 811 812 812 813 815 816 818 819 820 821 822 824 825 826 826 826 826 827 827 828 829 829 829 830 830 831 832 831 832 833 834 835 836
781 785 785 795 802 801 801 799 794 788 782 778 769 759 760 762 762 763 763 765 765 767 767 766 766 767 772 774 770 767 767 768 769 769 771 771 772 773 775 777 779 781 782 783 786 787 789 791 792 793 794 796 797 798 800 801 802 804 805 806 808 809 811 812 813 814 815 816 816 818 820 821 822 822 823 824 826 828 828 828 828 828 829 829 829 830 831 831 832 832 833 832 833 834 834 835 836
781 787 787 795 801 798 798 798 793 789 783 775 768 760 760 761 759 759 761 764 765 768 766 761 762 763 772 773 766 766 767 768 769 770 771 772 773 774 776 778 780 782 783 785 786 788 790 791 793 794 795 797 798 799 801 802 804 805 807 808 809 810 812 813 814 815 816 817 818 819 820 822 823 823 824 824 825 828 830 830 830 830 830 830 830 831 831 832 833 833 833 833 834 835 835 836 837
779 784 785 794 802 798 795 793 790 791 783 771 768 763 759 759 758 757 759 766 768 767 763 758 759 763 771 773 767 766 768 769 770 771 772 773 774 775 777 779 781 783 785 786 787 789 790 792 793 795 796 797 799 800 802 803 805 806 807 809 810 811 812 813 815 816 817 818 819 820 822 823 824 824 825 825 825 827 830 832 831 831 831 831 831 832 832 833 834 834 834 834 835 836 836 837 838
778 782 785 793 800 797 793 791 789 791 782 769 769 765 760 760 758 759 759 765 769 763 760 758 759 765 771 771 768 766 768 769 770 771 772 774 775 777 779 780 783 784 786 787 788 789 791 792 794 795 796 798 799 801 802 804 805 806 808 809 810 811 812 814 815 816 817 819 820 821 823 824 825 825 826 827 827 827 829 832 832 832 832 832 832 832 833 833 834 835 835 835 836 837 837 838 838
777 780 787 794 799 798 793 791 790 790 780 767 768 765 764 762 759 762 759 760 765 762 762 763 762 766 768 767 766 765 767 769 770 772 773 775 776 778 780 782 784 785 787 788 789 790 791 793 794 795 796 798 800 801 802 804 805 806 807 809 810 811 813 814 816 817 818 819 821 822 823 825 826 826 827 829 830 830 829 832 833 833 833 833 833 833 833 834 835 835 836 836 837 838 838 838 839
776 780 792 797 799 798 791 788 788 784 775 766 766 766 769 767 761 761 758 757 763 765 766 767 765 766 766 765 765 764 766 768 770 772 774 775 777 779 781 783 785 786 788 789 790 791 791 793 794 795 797 798 799 801 802 803 804 805 807 808 810 812 813 815 817 818 819 820 821 823 824 825 826 826 827 828 830 833 831 831 833 833 833 834 834 834 834 834 835 836 836 837 838 838 839 839 840
778 787 796 798 797 792 785 782 779 777 773 768 766 767 770 768 765 761 759 763 766 768 768 768 767 766 766 765 765 766 767 769 771 773 774 776 778 780 782 783 785 786 788 789 790 791 792 793 795 796 796 798 799 800 801 802 804 805 807 809 811 813 814 816 818 819 820 821 822 823 824 825 826 826 827 827 828 833 833 832 833 833 834 834 834 834 834 835 836 836 837 838 838 839 839 840 841
781 790 795 793 790 783 777 775 774 773 772 769 767 768 767 765 765 760 763 771 770 769 770 770 770 768 767 766 766 767 768 770 772 773 775 777 779 780 781 783 785 786 788 789 790 792 792 793 795 795 796 797 798 799 801 802 804 805 807 809 811 813 815 817 818 819 820 821 822 823 824 825 826 826 827 827 827 831 834 833 834 834 834 835 835 835 835 835 836 837 837 838 839 840 840 840 841
780 786 792 787 781 778 774 773 772 771 771 770 767 767 766 763 762 760 765 772 770 769 768 768 770 769 768 767 767 768 769 771 773 774 776 778 779 781 782 784 785 786 787 789 790 792 792 793 794 794 795 797 798 799 801 802 804 806 807 809 811 813 815 816 818 819 820 821 822 823 824 825 826 827 828 828 828 831 833 833 833 834 834 835 835 835 835 836 836 837 838 839 840 840 841 841 842
779 782 787 781 778 778 772 770 770 770 770 769 767 767 765 760 760 762 765 771 771 768 764 763 763 765 767 767 767 768 770 772 774 775 776 778 780 781 782 784 785 786 788 788 789 791 792 792 793 794 795 796 798 799 800 802 804 805 807 808 810 812 814 815 817 819 820 821 822 823 825 826 827 828 828 829 829 831 833 833 833 834 834 835 835 836 836 836 837 837 838 839 840 841 841 842 843
778 780 780 776 777 777 768 768 769 768 768 768 768 768 765 760 760 762 763 767 767 762 758 758 758 761 764 765 766 768 770 773 774 775 776 778 779 781 782 784 785 786 788 788 788 790 791 792 792 793 795 796 797 798 799 801 802 804 806 808 810 812 814 815 817 818 819 821 822 823 824 826 828 828 829 829 830 831 832 833 833 833 834 835 835 836 836 836 837 838 839 840 840 841 842 843 843
778 779 776 774 774 772 767 766 766 767 769 768 768 767 765 763 762 762 762 760 759 756 754 756 758 761 763 764 766 769 771 773 773 775 775 776 778 779 781 783 785 786 787 788 787 789 790 791 792 793 794 795 797 798 799 800 802 803 806 809 811 813 815 817 818 818 819 820 821 822 824 826 827 828 829 829 830 831 832 832 833 833 834 834 835 836 836 837 837 838 839 840 841 842 842 843 844
778 779 775 773 772 770 766 765 765 766 768 766 765 766 765 765 764 764 762 756 755 756 755 755 758 762 764 766 769 771 772 773 773 774 775 775 776 778 780 783 784 785 786 787 787 788 789 791 792 793 794 795 796 797 798 800 801 803 806 809 811 813 815 817 818 818 819 820 821 822 823 825 826 828 829 829 830 831 832 832 833 833 833 834 835 836 836 837 837 838 840 840 841 842 843 844 845
777 777 773 771 770 767 765 766 765 765 765 764 765 765 761 762 765 764 760 756 756 757 756 757 760 762 766 769 771 772 772 772 773 774 775 776 778 780 782 783 785 785 785 786 787 788 789 790 791 792 793 794 795 796 797 798 800 802 804 808 811 813 815 816 816 818 820 821 822 822 823 823 825 827 828 829 829 830 831 832 833 833 833 834 834 835 836 836 837 838 840 841 841 842 843 844 845
773 772 772 770 768 766 765 765 763 763 764 762 765 763 759 760 764 762 759 758 758 758 758 760 762 764 767 770 771 771 772 772 772 773 775 778 779 781 782 783 784 784 785 786 787 788 789 790 791 792 793 794 795 796 796 797 799 801 804 807 811 813 815 815 815 816 819 820 821 822 823 823 823 826 828 828 829 829 831 831 832 832 833 833 834 835 836 836 837 839 840 841 842 842 843 844 845
768 768 769 768 767 765 765 764 761 763 763 761 764 762 760 761 763 763 760 759 759 759 762 763 763 765 768 770 771 771 771 772 772 774 776 779 780 781 782 783 783 784 785 786 787 788 789 790 791 793 794 794 795 796 796 797 799 801 804 808 810 812 813 813 813 814 817 818 819 820 822 822 823 825 827 827 827 828 830 830 831 832 832 832 833 834 835 836 837 838 840 841 842 842 843 844 845
765 767 768 767 767 766 765 763 761 764 761 758 760 761 761 762 763 762 759 760 760 760 764 766 765 767 769 770 771 771 771 772 773 774 777 778 779 780 781 781 782 783 785 786 787 788 789 790 791 792 792 794 795 796 797 798 800 802 804 807 809 810 811 811 811 812 814 816 816 817 819 820 822 824 826 826 826 827 828 830 831 831 832 832 832 833 834 836 837 838 839 840 841 842 843 844 845
764 765 769 768 766 764 763 760 760 762 760 755 759 766 766 762 763 762 759 761 761 763 766 766 767 768 769 770 770 771 771 771 772 774 776 778 778 779 780 780 781 782 784 785 786 787 788 789 790 790 792 793 795 796 797 799 800 801 803 805 807 809 810 810 810 809 811 814 816 816 817 818 820 822 824 825 825 826 828 829 830 830 831 831 832 833 834 835 836 837 838 839 841 842 843 844 845
765 766 769 769 771 768 761 761 762 761 759 754 759 775 771 760 764 763 761 762 763 766 767 766 767 768 769 769 770 770 770 770 772 774 776 777 778 780 780 781 781 782 784 785 786 786 787 788 789 790 792 793 795 796 797 798 799 800 802 804 806 808 810 810 810 810 810 813 815 816 816 817 819 820 822 824 825 826 828 829 829 830 830 831 832 833 834 835 836 837 838 839 840 841 842 843 844
768 770 772 776 779 772 761 761 763 759 759 754 758 776 769 758 764 763 760 762 761 765 767 766 766 767 768 768 769 770 769 770 772 774 775 777 778 779 779 780 781 782 783 784 785 786 786 787 789 790 792 793 794 795 795 796 797 798 801 803 806 807 808 810 811 811 811 812 813 814 815 817 818 819 821 822 824 826 829 829 829 830 830 831 832 833 833 834 835 837 838 839 840 841 842 843 844
773 776 780 784 782 774 763 761 763 760 758 755 760 774 768 759 763 760 760 761 759 762 765 766 766 766 767 767 768 769 769 770 771 773 774 775 777 778 779 779 780 782 783 784 784 785 786 788 790 791 791 792 792 793 793 794 796 798 800 802 804 805 806 808 810 810 811 811 812 813 814 815 817 818 819 821 823 825 828 830 830 830 830 831 831 832 832 833 835 836 838 839 840 841 842 843 844
779 779 781 784 781 777 770 762 762 760 758 757 761 769 766 762 763 761 761 762 760 761 764 766 765 766 766 766 768 769 770 771 771 772 772 773 775 777 779 779 780 781 782 783 783 784 786 788 790 790 791 791 791 791 792 794 795 796 798 801 803 804 805 807 809 810 811 811 811 813 814 815 816 817 819 820 822 824 826 829 830 830 830 830 831 831 832 833 834 836 837 839 839 840 841 843 844
783 781 781 784 783 781 775 766 763 760 760 760 761 765 763 762 763 762 763 763 763 762 762 765 765 766 767 768 769 770 771 772 770 770 770 772 775 778 779 779 780 781 782 783 783 784 787 789 789 790 790 790 791 791 792 793 794 795 797 799 802 803 805 807 808 809 811 812 812 813 814 815 816 817 818 820 821 823 824 827 829 830 829 829 830 830 831 832 834 836 837 838 839 840 841 843 844
781 780 780 784 784 783 778 770 764 760 762 764 765 766 762 762 764 762 763 764 764 762 762 764 765 767 768 769 770 770 772 771 769 768 770 773 776 778 779 780 781 781 783 783 784 787 788 789 790 790 790 791 791 792 793 794 794 796 797 798 800 802 804 805 807 809 811 812 812 813 815 817 818 818 818 818 820 822 823 826 828 829 828 828 829 829 831 832 834 835 836 837 839 840 841 842 844
775 777 779 782 782 783 779 772 765 763 765 763 764 765 760 763 764 761 763 764 764 764 763 765 766 767 768 769 771 771 772 769 767 769 771 774 777 778 779 780 781 782 783 784 786 788 789 790 790 790 791 791 793 793 794 794 795 797 797 799 800 801 802 804 807 809 810 811 812 812 814 816 817 817 818 817 818 820 823 824 827 828 828 827 828 829 830 831 833 834 836 837 838 840 842 843 844
773 777 780 782 782 781 777 772 764 763 766 761 762 763 762 766 764 761 767 767 767 766 765 765 766 767 768 769 770 770 770 768 768 771 773 776 777 778 779 780 781 781 783 785 786 787 787 787 788 789 789 790 792 793 794 795 796 799 800 799 799 800 802 804 807 809 810 810 810 811 812 814 815 816 817 816 817 819 821 824 826 828 827 827 828 829 830 831 832 834 835 837 838 840 842 844 845
774 777 780 783 784 780 774 772 767 763 765 763 765 765 763 767 764 764 772 771 770 770 767 767 766 767 768 768 770 770 770 769 770 773 775 777 777 777 778 778 779 780 781 782 783 783 784 785 785 786 787 789 790 790 792 794 795 797 799 799 798 800 802 804 807 808 809 810 809 810 811 812 814 815 816 816 816 817 820 823 825 826 827 827 828 829 830 831 832 834 834 836 838 839 842 843 844
776 779 781 781 783 780 773 772 769 766 764 761 766 766 763 770 770 770 776 773 772 773 770 769 768 769 770 770 771 771 771 771 773 775 776 777 777 777 778 778 779 779 780 782 782 784 785 785 786 786 787 788 789 789 790 792 792 793 796 798 798 800 802 804 806 808 809 810 809 809 810 812 814 815 816 816 816 816 819 822 822 823 825 826 828 829 830 831 832 833 834 836 838 840 842 843 844
776 778 779 780 782 780 775 772 770 768 768 765 768 766 765 775 774 769 775 775 775 775 770 769 769 770 771 771 772 772 772 774 775 776 775 776 778 778 779 780 780 781 782 783 784 785 786 787 788 788 789 790 790 790 790 790 791 793 795 796 797 799 801 804 806 807 809 809 808 809 811 813 815 816 817 816 816 816 819 820 820 822 824 825 827 828 829 830 832 833 834 835 836 839 841 843 844
778 777 777 777 778 776 775 774 769 768 772 770 768 765 769 783 781 774 777 776 775 777 773 773 774 772 770 769 771 772 774 776 776 775 775 777 778 780 781 781 781 781 782 783 785 786 787 788 789 789 790 791 792 792 791 790 790 792 793 794 796 797 800 803 805 807 808 808 808 809 811 812 814 816 817 818 818 817 818 819 820 821 823 825 827 828 829 830 831 833 834 835 835 837 839 842 844
777 775 772 772 771 773 776 776 773 773 775 773 771 773 779 789 789 785 785 780 777 779 779 781 781 775 771 769 771 773 774 775 776 776 777 777 778 780 781 782 783 783 784 785 786 787 788 789 789 789 790 791 792 793 792 791 790 790 791 792 794 795 798 800 803 805 806 806 806 807 809 810 811 812 814 816 817 817 818 819 820 822 824 825 827 828 829 830 831 832 833 834 835 836 838 840 843
777 770 767 769 768 771 776 776 776 778 778 776 777 779 782 786 790 792 790 787 785 783 782 784 783 780 776 774 773 773 774 775 776 777 777 777 778 780 782 783 784 785 786 786 787 788 788 789 789 789 790 790 791 792 792 791 790 789 789 790 792 793 795 797 799 802 802 802 803 805 807 808 810 811 812 813 815 816 818 819 820 822 824 825 826 828 829 830 831 832 833 834 835 836 837 838 841
775 767 766 770 768 770 773 773 775 776 775 777 777 777 780 784 792 796 793 792 791 787 785 784 782 782 781 779 777 775 775 775 776 777 778 778 779 780 781 783 785 785 786 787 787 787 787 788 788 789 789 790 790 791 791 791 790 790 790 790 791 791 793 794 797 799 800 800 801 803 804 805 808 810 811 811 813 816 818 819 820 821 823 824 826 827 829 830 831 832 833 834 835 835 836 837 839
765 763 767 769 766 768 770 771 776 777 777 778 777 779 783 786 792 798 796 795 795 791 788 785 783 783 782 782 781 779 777 776 776 777 777 778 779 780 781 783 785 786 787 787 787 787 787 787 788 788 789 790 790 790 790 790 790 790 790 790 790 791 792 794 795 797 798 799 800 801 802 804 805 807 808 809 811 814 816 817 819 820 822 823 825 826 828 829 831 831 832 833 834 835 836 837 838
758 760 765 766 769 773 774 774 775 778 784 783 776 778 784 788 795 799 797 796 797 793 789 787 785 784 783 784 783 782 780 778 777 777 777 778 779 780 782 783 785 787 788 788 788 788 788 788 788 789 789 790 790 789 789 789 789 790 790 790 790 791 792 794 795 796 797 798 798 799 801 802 804 806 807 807 809 812 814 816 818 819 821 823 824 826 827 828 830 831 832 832 833 834 836 837 838
755 758 763 766 771 774 777 780 776 781 791 783 776 779 782 789 799 802 799 798 797 793 790 789 787 786 785 784 784 784 783 781 780 779 778 779 780 781 783 785 786 787 788 788 788 788 788 789 789 788 789 789 789 789 788 787 788 788 789 789 790 790 791 792 794 794 795 796 796 797 799 801 802 804 805 806 808 811 813 814 816 819 821 822 823 825 826 827 828 830 831 832 833 834 835 836 837
754 757 761 769 777 777 780 784 781 789 794 783 784 786 782 789 798 800 799 797 794 792 792 791 789 788 787 786 786 786 785 785 783 781 781 781 782 784 785 786 787 787 788 788 788 789 789 789 789 789 788 789 788 788 787 787 787 787 788 789 789 789 789 790 791 793 793 794 794 795 797 799 801 803 805 805 807 809 811 813 815 818 820 821 823 824 825 826 827 829 830 831 832 833 834 835 836
756 760 763 774 786 788 791 793 792 795 790 786 795 790 784 794 798 797 799 797 795 794 793 793 792 791 790 789 789 788 788 788 786 785 784 784 785 786 787 787 788 788 788 788 789 789 789 789 789 789 788 788 788 787 785 785 786 786 786 786 787 787 787 788 789 791 792 793 793 794 795 797 799 801 804 805 805 807 809 811 813 816 818 820 822 823 824 825 826 827 829 830 831 833 834 834 835
760 762 765 775 788 794 801 807 807 800 788 789 796 788 790 802 799 797 800 798 796 796 794 794 794 794 793 791 790 790 791 790 789 788 787 787 787 787 787 788 788 788 788 789 789 789 789 789 789 789 788 788 787 784 783 783 784 785 785 784 784 784 785 786 788 790 792 793 793 794 795 796 797 799 802 804 805 806 807 809 812 815 817 819 821 822 824 825 826 827 828 829 830 832 833 834 835
760 757 759 768 776 782 792 797 795 791 788 793 793 789 796 804 800 798 797 796 797 796 795 796 794 795 794 793 792 792 792 792 790 790 789 789 788 787 788 788 788 789 789 789 789 789 788 788 788 789 788 787 784 782 782 782 783 783 784 785 785 785 785 787 789 791 793 793 794 794 795 796 797 799 801 803 804 805 807 809 811 814 816 818 820 821 822 824 825 827 828 829 830 831 832 833 834
760 756 759 764 760 762 782 792 788 785 788 796 800 799 803 803 800 800 797 797 797 796 797 797 796 797 796 795 795 795 795 795 793 792 791 790 789 789 789 789 789 789 789 789 788 788 788 788 788 788 787 785 782 782 782 782 782 781 783 786 788 788 788 788 789 791 792 793 793 794 794 795 797 798 800 802 804 805 806 808 810 813 815 817 818 820 821 823 824 826 827 828 829 830 832 833 834
758 759 759 761 753 753 775 794 798 790 786 801 813 809 806 805 801 799 799 798 798 797 798 799 799 799 799 799 799 799 799 798 797 796 793 792 790 790 790 790 790 790 789 789 789 789 788 788 788 787 785 783 783 783 782 782 784 783 783 785 787 788 789 789 789 790 790 791 792 793 793 794 796 798 800 801 803 804 806 808 809 811 813 815 817 818 820 821 823 825 826 827 828 830 831 832 834
752 756 751 754 758 758 765 781 796 795 789 804 818 809 804 807 803 799 799 798 798 798 798 799 801 801 801 802 802 802 801 800 799 798 795 794 792 792 792 792 792 792 791 790 789 789 789 788 787 786 784 783 782 783 782 784 786 786 785 785 785 787 788 788 787 788 788 789 790 791 792 794 797 799 800 801 802 804 805 807 808 810 812 813 815 817 819 820 822 823 825 826 828 829 830 832 833
738 741 740 747 760 765 768 777 788 792 796 807 816 813 809 806 801 798 798 798 797 798 799 801 803 804 803 804 804 803 803 802 801 800 798 796 794 794 794 794 794 794 793 792 791 790 789 788 786 785 783 782 781 782 783 785 786 786 786 786 785 787 787 786 785 785 785 786 787 790 792 794 796 799 800 800 802 803 805 807 808 809 811 812 814 816 817 819 821 822 824 825 827 829 830 831 833
736 740 742 744 751 758 765 772 775 780 794 805 813 818 812 801 796 796 796 797 796 797 801 803 805 806 806 806 806 805 805 805 804 802 800 798 797 797 797 797 796 795 794 793 792 791 790 789 786 784 783 781 781 782 783 785 785 785 786 786 786 787 787 786 784 783 784 785 787 788 789 791 793 796 799 799 800 802 804 806 807 808 810 811 813 814 816 818 820 822 823 825 826 828 830 831 832
740 746 749 749 753 756 760 770 775 774 782 795 805 810 805 796 793 792 793 796 796 798 803 806 807 808 808 808 808 808 808 807 806 805 803 801 800 800 799 798 797 796 795 794 793 792 791 789 787 784 782 781 781 781 781 782 783 783 784 784 784 785 784 784 783 784 785 786 786 786 788 790 792 794 797 798 799 801 803 804 806 807 809 810 812 813 815 817 819 821 823 824 826 827 829 830 831
739 741 745 748 752 755 761 775 782 775 777 788 791 791 796 797 793 791 794 795 796 800 804 807 810 809 810 811 810 810 810 810 809 807 806 805 803 802 801 800 799 797 797 795 794 794 792 790 788 785 783 781 780 780 780 781 780 778 779 780 780 780 781 782 783 785 786 785 785 786 787 789 791 792 794 796 798 799 801 803 804 806 808 809 811 813 814 817 818 820 822 824 825 826 828 829 830